GAOFEN 10R (44622 NORAD) Tracking and Keplerian Element Data

This shows tracking and keplerian element data for the satellite.

Feedback or suggestion? Click here.




ElementValue
Catalog44622
NameGAOFEN 10R
Epoch Orbit2683
Epoch Day94.14470375
Epoch Year2020
RAAN39.4528
Inclination97.8106
Eccentricity0.00019
Argument of Perigee85.1414
Mean Anonmoly275.002
Mean Motion14.80652014
Decay Rate1.22E-06
L11 44622U 19066A 20094.14470375 .00000122 00000-0 22530-4 0 9997
L22 44622 97.8106 39.4528 0001900 85.1414 275.0020 14.80652014 26831

Live tracking and technical data element details for GAOFEN 10R (NORAD 44622). GAOFEN 10R can be tracked NOW for your location showing map with azimuth and elevation plus other details from your city location.

Track the satellite on the map from your city or location and see movement details for azimuth, elevation, latitude, longitude, range, height, and movement on the map or in text.







IsCatalogInMostPopularTable: catalog: 44622, numindb: 57
Update: records affected: 1



GetName: 44622 GAOFEN 10R

Hit Count: updated at: Fri, 03 Apr 2020 23:59:39 GMT